CUSAT 2 & FALCON 9 R/B (39271 NORAD) Tracking and Keplerian Element Data

This shows tracking and keplerian element data for the satellite.

Feedback or suggestion? Click here.




ElementValue
Catalog39271
NameCUSAT 2 & FALCON 9 R/B
Epoch Orbit60122
Epoch Day34.35543704
Epoch Year2025
RAAN147.6244
Inclination80.893
Eccentricity0.0059116
Argument of Perigee225.1723
Mean Anonmoly192.2123
Mean Motion16.1373385
Decay Rate0.01312403
L11 39271U 13055G 25034.35543704 .01312403 -87284-6 81239-3 0 9997
L22 39271 80.8930 147.6244 0059116 225.1723 192.2123 16.13733850601222



Live tracking and technical data element details for CUSAT 2 & FALCON 9 R/B (NORAD 39271). CUSAT 2 & FALCON 9 R/B can be tracked NOW for your location showing map with azimuth and elevation plus other details from your city location.







IsCatalogInMostPopularTable: catalog: 39271, numindb: 1254
Update: records affected: 1



GetName: 39271 CUSAT 2 & FALCON 9 R/B

Hit Count: updated at: Wed, 14 May 2025 02:38:57 GMT